Theta_e
302 302 302 304 307 307 307 308 307 307 307 308 309 309 310 311 311 311 310 311 311 308 306 305 302 299 297 296 296 298 299 301 302 302 303 303 303 304 305 305 306 306 307 307 307 307 307 308 308 308 309 310 310 311 312 311 311 311 312 312 312 313 313 315 317 319 319 319 320 322 324 326 327 327
303 303 303 305 307 307 308 308 307 307 307 308 308 308 309 310 310 310 310 310 310 309 306 303 301 299 298 297 296 296 296 297 298 299 299 300 300 301 302 303 304 304 305 305 306 306 307 307 307 307 307 308 308 308 309 309 310 310 311 311 312 312 312 313 314 317 319 319 319 320 320 322 324 326
305 305 306 307 308 307 307 307 307 307 307 308 308 308 308 309 309 310 311 310 309 309 306 302 299 298 297 297 297 296 296 296 296 296 297 297 297 298 299 299 300 301 302 303 303 304 305 305 306 306 307 307 307 307 307 308 309 309 309 310 311 311 312 313 314 316 318 320 319 319 319 320 322 324
307 307 308 308 307 307 308 307 307 307 307 308 309 309 308 309 308 309 310 310 309 307 304 301 298 297 297 297 298 298 297 296 296 296 296 296 296 297 298 297 297 298 298 299 300 300 301 302 303 303 304 305 305 306 307 307 307 308 309 309 309 310 311 312 314 315 317 318 319 319 318 319 320 322
306 307 308 307 307 307 307 307 307 307 307 307 307 308 309 308 308 307 308 309 308 306 302 300 298 297 298 298 298 298 298 296 297 297 296 296 296 296 298 298 297 296 297 297 297 298 298 299 299 300 300 301 302 303 304 305 305 306 307 308 308 309 309 310 312 313 315 316 318 319 318 317 317 318
306 306 306 305 305 305 305 306 307 307 307 307 307 308 308 307 305 305 306 306 306 305 302 300 299 298 298 299 299 298 298 297 298 298 298 297 297 296 297 298 297 296 296 297 297 297 297 297 297 297 298 298 299 299 300 301 302 303 304 306 307 307 308 308 309 311 312 314 317 318 319 318 317 316
307 307 307 306 305 305 304 305 306 306 306 307 307 306 306 304 303 302 304 305 305 304 302 300 300 300 299 300 299 299 299 298 299 299 299 298 298 298 297 298 298 296 296 296 296 296 296 296 296 296 297 297 297 297 298 298 299 300 301 302 304 305 307 307 308 308 310 312 314 316 318 319 319 318
306 308 309 308 307 307 306 305 305 305 306 307 306 305 304 303 302 301 302 303 303 303 302 301 300 300 300 300 299 299 299 299 299 300 300 299 299 299 298 298 297 296 296 296 295 296 296 296 296 296 296 296 296 297 297 297 297 298 298 299 300 302 304 305 307 307 308 309 311 313 316 318 319 319
308 307 308 308 307 307 307 307 306 306 305 306 306 305 304 303 302 302 301 302 302 303 304 302 300 300 300 300 300 299 300 301 301 301 301 300 300 299 298 298 297 296 296 296 295 296 295 295 295 295 296 296 296 296 296 296 297 297 297 298 298 299 300 302 304 305 306 307 308 310 313 316 318 319
310 309 309 308 307 308 308 307 307 306 306 306 306 305 305 304 303 302 301 302 302 303 303 302 302 301 301 301 301 300 299 300 301 301 301 301 301 300 299 298 298 296 296 295 295 295 295 295 295 295 295 296 296 296 296 296 296 296 296 297 297 297 298 299 301 302 304 305 306 307 310 312 315 317
311 311 310 310 309 308 309 308 308 308 307 307 306 306 305 303 302 302 302 302 303 303 303 303 303 302 301 301 301 300 299 300 301 301 301 302 302 301 299 299 298 298 296 296 295 295 295 295 295 295 295 295 295 296 296 295 296 296 296 297 297 297 297 298 298 299 300 302 303 305 306 309 312 315
313 312 311 312 312 312 311 310 309 308 308 307 307 306 305 303 303 302 303 303 304 304 304 304 303 303 303 302 302 301 301 302 302 300 300 301 301 300 299 299 299 298 296 296 296 296 295 295 295 295 296 296 295 295 296 296 296 297 298 298 298 298 298 298 298 298 299 300 301 303 304 305 308 311
316 315 313 312 314 314 314 311 309 308 308 308 307 307 306 304 304 303 303 304 304 304 305 305 304 304 305 303 303 302 302 301 301 300 300 301 300 299 299 299 299 297 296 296 296 296 296 295 295 296 297 296 295 296 296 297 297 298 298 298 299 299 299 299 299 299 299 299 299 300 302 303 304 306
317 317 315 314 314 315 314 312 310 308 308 308 308 307 306 305 304 303 303 304 304 304 305 304 303 304 305 304 302 302 301 300 300 300 300 300 299 298 298 298 299 297 295 295 296 297 297 296 296 296 297 296 296 297 298 297 297 297 298 298 298 298 299 299 300 300 300 300 300 300 301 302 302 303
317 317 317 316 316 316 315 313 311 310 309 308 307 306 305 304 303 302 303 303 303 303 304 303 302 303 304 303 302 301 301 300 300 300 299 299 298 298 298 298 298 297 295 294 295 296 297 296 296 296 297 297 296 296 296 295 295 296 297 297 297 297 298 299 301 302 301 301 302 302 302 302 303 304
318 317 317 317 317 316 315 313 312 311 309 307 306 305 303 302 302 302 302 303 302 302 303 302 302 303 303 302 301 301 300 299 299 299 298 298 298 297 297 297 297 297 295 294 295 296 296 296 296 296 297 296 296 295 294 294 294 295 296 296 297 297 297 298 299 301 302 302 302 303 303 304 305 307
319 318 317 317 316 316 315 313 312 311 309 307 305 304 302 301 301 301 301 302 302 302 301 302 302 302 301 301 301 299 297 297 297 298 297 297 297 297 297 297 296 296 294 294 295 296 296 296 296 296 296 296 296 295 295 294 293 294 295 296 296 297 296 296 297 299 301 302 303 303 304 304 305 307
319 318 317 316 315 314 314 312 311 310 308 306 303 302 301 300 300 301 302 302 301 300 300 301 301 300 299 299 299 297 295 295 296 296 296 296 296 296 295 295 295 295 294 294 295 295 296 296 296 296 296 296 296 296 295 294 293 294 295 296 296 296 296 296 296 297 300 302 303 303 303 304 304 305
318 317 316 315 313 312 312 311 310 308 306 304 302 301 300 300 301 301 301 301 300 300 299 299 299 298 297 297 296 294 294 294 294 294 294 294 294 294 295 295 295 295 295 294 294 295 295 295 296 296 296 295 295 295 295 294 293 294 295 296 296 296 296 296 295 296 297 299 302 302 302 303 304 304
314 313 312 311 310 310 310 309 308 306 305 303 301 300 300 301 301 301 300 299 299 299 298 297 296 296 295 295 294 293 293 293 293 293 293 294 294 295 295 296 296 296 296 294 294 294 295 295 295 296 295 295 295 295 295 295 294 294 295 295 295 295 295 295 295 295 295 297 300 301 301 301 302 303
310 310 309 308 308 308 307 305 304 303 303 302 301 301 301 301 300 299 298 298 298 297 296 295 295 294 294 293 293 292 292 292 292 292 294 295 295 294 295 295 295 295 295 295 294 294 295 295 295 295 295 295 295 295 295 296 295 295 295 295 295 295 295 294 294 294 294 295 298 301 300 300 300 300
308 307 306 306 305 305 303 302 302 301 302 302 301 301 301 300 298 298 297 296 296 295 294 294 293 293 293 292 292 292 292 291 291 291 293 294 293 294 294 294 295 294 294 294 294 294 294 294 294 294 294 294 295 295 295 295 295 295 295 294 294 294 294 293 293 293 293 295 297 298 298 298 299 299
305 304 303 303 303 303 302 301 301 301 301 301 300 300 300 299 298 297 296 295 295 294 294 294 293 293 292 292 292 291 291 291 290 291 292 293 293 293 293 293 294 294 294 294 293 293 294 293 293 293 294 294 294 295 295 295 295 295 294 294 294 294 293 293 293 293 293 294 295 295 295 296 297 299
302 301 301 301 301 302 301 301 301 301 300 300 300 299 300 300 298 296 294 294 294 294 293 293 293 293 292 292 292 292 291 291 291 291 291 292 292 292 292 293 293 293 294 293 293 292 292 293 293 293 293 293 294 294 294 294 294 294 294 293 294 294 294 294 294 295 294 294 294 294 294 295 296 298
301 300 300 300 300 300 301 300 300 300 300 300 299 298 298 297 295 294 294 293 293 293 293 293 293 293 292 292 292 292 292 291 291 291 291 291 291 292 292 292 292 293 293 292 292 291 292 292 292 293 293 293 293 293 293 293 293 293 293 293 293 293 294 294 295 295 295 295 295 294 294 295 295 297
300 300 300 299 299 300 300 300 299 299 298 298 297 296 295 294 293 293 293 293 293 293 293 293 293 293 293 292 292 292 292 292 291 291 291 291 291 291 291 291 291 292 292 292 291 291 291 291 292 292 292 292 293 293 293 293 293 293 292 292 293 293 293 294 294 294 295 295 296 296 295 295 294 295
300 299 299 298 298 298 298 298 298 297 296 295 294 294 293 293 293 292 292 292 292 292 292 292 293 293 293 292 292 292 291 291 291 290 290 290 290 290 290 290 291 291 291 291 291 290 291 291 291 291 292 292 292 292 292 292 292 292 292 292 292 292 293 293 294 294 294 295 295 296 296 295 294 294
300 299 298 297 297 296 296 296 295 295 294 293 293 293 293 292 292 292 292 292 292 292 292 292 293 293 292 292 291 291 290 290 289 289 289 289 289 289 290 290 290 290 290 290 290 290 290 291 291 291 291 292 292 292 292 292 292 292 292 292 291 291 292 293 293 294 294 295 295 296 296 296 296 296
299 298 297 296 295 295 294 294 294 293 293 293 293 292 292 292 291 291 292 292 292 292 292 292 292 292 291 291 290 290 289 289 289 289 289 289 289 289 289 289 289 290 290 289 290 290 290 290 290 290 291 291 291 291 291 291 291 291 291 291 291 291 291 292 293 294 294 294 295 295 296 296 297 297
297 296 296 295 295 294 294 293 293 293 292 292 292 291 291 291 291 291 291 292 292 292 292 291 291 291 291 290 289 289 289 289 289 289 289 289 289 289 289 289 289 290 290 290 290 290 290 290 290 290 290 290 290 291 291 291 291 291 291 291 291 291 291 292 292 293 294 294 295 295 296 296 296 296
296 295 294 294 294 293 293 292 292 292 292 291 291 291 291 290 290 290 290 290 291 291 291 291 291 290 290 289 289 289 289 289 289 289 289 289 289 289 289 289 290 290 290 290 290 290 290 290 290 290 290 290 290 290 290 290 290 291 290 290 290 291 291 292 292 293 293 294 294 294 294 295 295 295
295 294 293 293 293 292 292 292 292 292 291 290 290 291 291 290 290 290 289 289 290 290 290 290 290 290 290 290 290 289 289 289 290 290 289 289 289 289 289 289 290 290 290 290 290 290 290 290 289 290 290 290 290 290 290 290 290 290 290 290 290 290 291 291 292 292 293 293 293 294 294 294 293 294
294 293 293 292 292 292 292 292 292 291 291 291 290 290 290 290 290 289 289 289 289 289 289 289 290 290 289 289 290 290 290 290 290 290 289 289 290 290 290 290 290 290 290 290 290 290 290 290 290 290 289 289 289 289 289 289 290 290 290 290 290 290 291 291 292 292 292 293 293 293 294 293 293 293
293 293 292 292 292 292 292 292 292 291 291 291 291 290 289 289 289 288 289 289 288 288 288 289 289 289 289 289 289 290 290 289 289 290 289 289 290 290 290 290 290 290 290 290 290 290 290 290 290 290 289 289 289 289 289 289 290 290 290 290 290 291 291 291 292 292 292 293 293 293 293 293 293 294
293 293 293 292 292 292 292 292 291 291 291 291 290 290 290 289 289 288 288 288 287 287 288 289 289 289 289 289 289 289 289 289 289 289 289 289 290 290 290 290 290 290 290 290 290 290 290 290 290 290 290 290 290 290 290 290 290 290 290 290 291 291 291 292 292 292 292 293 292 292 292 293 293 294
293 293 293 292 292 292 292 291 291 291 290 290 290 290 290 290 289 289 288 286 286 287 288 289 289 290 289 289 289 289 289 289 289 289 289 290 290 290 290 289 289 290 290 290 290 290 290 290 290 290 290 290 290 290 291 290 290 290 290 290 291 291 292 292 292 292 292 292 292 292 292 293 293 293
293 293 293 292 292 291 291 291 290 290 290 290 290 290 290 290 289 288 287 285 286 287 288 289 289 290 290 289 289 289 289 289 289 289 289 289 290 289 289 289 289 290 290 290 290 290 290 290 290 290 290 290 289 289 290 291 290 290 290 290 290 291 291 291 291 291 291 291 292 292 292 292 293 293
293 292 292 292 292 291 291 291 290 290 290 290 290 290 290 290 289 288 286 286 287 288 289 289 290 290 289 289 289 289 289 289 289 289 289 289 289 289 289 289 289 290 290 290 290 290 290 290 290 290 290 289 289 289 290 290 290 290 290 290 290 291 291 291 291 291 291 291 291 291 291 292 292 292
292 292 292 292 292 291 291 290 290 290 290 290 290 290 290 289 288 287 286 287 287 288 289 290 290 289 289 289 289 289 289 289 289 289 289 289 289 289 289 289 289 289 290 290 290 290 290 290 290 290 290 290 290 290 290 290 290 289 289 289 289 290 290 290 291 291 291 291 291 291 291 291 291 291
291 291 292 292 291 291 291 290 290 290 290 290 290 290 289 288 287 286 286 287 287 288 289 290 289 289 289 289 289 289 288 288 289 289 289 289 289 289 289 289 289 289 290 290 290 290 290 290 291 291 290 290 290 289 289 289 289 289 289 290 290 290 290 290 291 291 291 291 291 290 290 290 290 290
291 291 291 291 291 291 291 290 290 290 290 290 290 289 288 287 285 285 286 287 288 289 289 289 289 289 289 289 289 288 288 288 288 288 288 288 288 288 288 289 289 289 290 290 290 290 290 290 290 290 290 289 289 289 289 289 289 290 290 290 290 290 290 290 291 291 291 290 290 291 290 290 290 290
291 291 291 291 291 291 290 290 290 290 290 290 289 288 287 286 285 285 286 288 289 290 289 289 289 289 289 289 289 288 288 288 288 288 288 288 288 288 289 289 289 289 289 289 290 290 290 290 290 290 290 289 289 290 290 290 290 291 291 291 290 290 290 290 291 291 291 290 290 290 290 290 290 290
291 291 290 290 290 290 290 290 290 290 289 289 288 287 286 286 286 286 287 288 289 289 289 289 289 289 289 289 288 288 288 288 288 288 288 288 288 288 289 289 289 289 289 289 289 289 289 290 290 290 290 290 290 290 290 291 291 291 291 291 290 290 289 289 290 291 291 290 290 290 290 290 291 291
290 290 290 290 290 290 289 290 290 289 288 288 287 286 286 285 286 287 288 289 290 290 289 289 289 289 289 288 288 288 288 288 288 288 288 288 288 288 288 289 289 289 289 289 289 290 290 290 290 290 290 290 291 291 291 291 291 291 291 291 290 289 289 289 289 290 290 290 290 290 290 291 291 291
290 290 290 290 289 289 289 289 289 289 288 287 287 286 285 285 286 287 289 290 290 290 289 288 288 288 288 288 288 288 288 288 288 288 288 288 288 288 288 289 289 289 289 289 290 290 290 290 290 290 290 291 291 291 290 290 290 291 291 290 289 289 289 288 288 288 289 289 289 290 290 291 291 291
Wind_Speed
14 15 16 17 17 16 15 15 15 15 15 13 9 6 6 6 5 4 3 3 4 5 5 5 7 9 10 11 10 9 8 7 8 8 9 9 9 9 8 8 8 8 8 7 7 7 7 7 7 6 5 5 5 5 6 7 8 9 10 12 14 15 16 17 18 19 18 18 18 18 17 19 22 23
16 16 17 18 17 16 15 14 13 14 15 14 13 10 7 5 5 5 4 3 3 4 5 5 6 7 9 10 10 10 9 8 8 8 8 8 8 8 7 7 7 7 7 6 6 6 6 6 6 6 5 5 5 6 6 7 8 9 10 11 12 14 15 17 18 19 19 18 18 18 18 18 19 21
15 16 17 16 15 14 12 12 11 11 12 12 12 12 11 9 8 6 4 4 3 2 4 5 6 7 8 9 10 10 10 9 9 9 9 9 9 9 9 8 8 7 7 7 7 7 7 7 7 7 7 6 6 7 7 8 8 9 10 11 12 13 14 15 16 17 17 17 17 17 17 16 17 18
13 13 13 13 12 11 10 10 10 10 11 11 10 10 10 10 9 6 5 6 5 3 3 4 4 6 8 9 10 10 10 11 11 10 10 10 11 11 11 11 11 9 8 8 7 8 8 8 9 9 9 9 9 9 9 10 10 10 10 11 11 12 13 14 14 15 16 16 17 17 16 16 15 15
10 10 11 10 9 9 9 9 10 10 10 10 10 9 9 8 7 6 6 7 6 5 3 3 4 5 7 8 9 10 10 11 11 11 11 12 13 14 12 11 12 10 8 8 8 8 8 9 9 10 11 11 12 12 12 12 12 12 12 12 12 12 13 14 14 14 15 16 16 17 16 15 15 14
9 9 9 9 9 8 8 8 9 9 9 9 8 8 8 8 7 6 6 6 6 6 4 3 3 5 6 6 8 10 11 12 11 10 11 13 15 16 16 12 11 11 9 8 9 9 9 10 11 11 12 12 12 13 14 14 14 14 14 14 14 13 13 13 14 15 15 16 16 17 17 17 16 15
7 6 6 7 8 8 8 8 8 9 8 7 7 8 8 8 8 7 6 6 6 6 5 4 2 3 5 5 6 9 10 12 12 11 12 14 15 18 19 15 12 11 10 9 10 10 11 12 12 12 12 12 13 13 13 14 15 16 16 17 16 16 15 14 14 15 15 16 16 17 17 18 18 16
5 5 5 5 6 7 7 7 7 8 8 7 7 8 8 8 7 7 7 6 6 5 5 4 3 2 3 4 6 8 9 9 11 12 13 13 15 19 22 20 16 14 14 14 14 14 15 15 14 13 12 12 12 12 12 13 14 15 16 18 18 18 18 18 17 16 16 16 16 17 18 18 19 18
6 6 6 6 6 7 7 7 7 7 7 7 7 7 7 6 5 6 6 6 6 5 5 4 3 2 2 2 5 8 9 7 8 10 11 11 14 20 23 22 20 18 18 19 20 21 21 19 17 15 13 12 11 12 12 12 13 14 15 17 18 19 20 20 19 19 18 17 17 17 17 18 19 19
8 8 8 9 9 8 8 7 6 7 7 7 6 6 6 5 4 4 5 5 5 5 4 3 3 2 2 3 4 8 11 9 8 11 11 8 10 16 22 22 20 18 19 21 23 25 24 22 20 17 14 13 12 11 11 11 12 13 14 15 16 17 19 20 20 20 20 19 19 18 18 18 19 20
10 11 12 12 11 10 10 10 10 9 9 8 7 6 5 5 4 4 4 4 4 4 3 2 2 1 2 4 4 7 11 8 7 12 14 11 11 15 19 19 15 15 18 21 23 24 24 24 22 20 17 16 15 13 11 10 10 11 13 14 14 15 16 17 18 19 20 20 20 20 19 18 18 19
12 13 14 13 12 13 13 14 15 14 11 10 9 8 6 5 4 3 3 3 3 2 2 1 2 1 1 3 5 6 8 6 7 11 13 14 15 17 19 15 11 12 16 19 19 19 21 22 20 18 16 15 15 14 11 9 9 9 10 11 12 13 14 15 16 17 19 20 20 21 20 20 19 19
14 14 16 15 15 15 15 15 17 16 13 11 10 9 7 6 4 4 3 2 1 1 1 2 3 4 3 4 5 6 6 7 9 10 11 12 13 17 18 14 11 12 17 19 18 15 16 18 17 13 11 13 15 13 10 9 9 8 8 10 11 12 14 14 15 16 17 18 19 20 20 20 20 20
15 15 17 17 16 16 16 16 17 16 14 13 11 9 8 7 5 5 4 2 0 1 2 2 4 6 6 5 6 6 6 8 9 9 10 12 13 14 16 13 11 13 18 22 21 16 14 15 14 10 9 12 13 11 9 9 10 9 9 10 12 13 14 14 14 15 16 16 17 18 19 20 20 20
15 14 15 15 15 15 15 14 14 14 15 15 13 10 8 7 6 5 4 2 1 1 2 1 2 5 6 5 6 6 6 7 9 9 10 11 12 12 13 13 11 12 18 23 22 18 14 13 13 11 9 10 10 10 11 11 11 11 11 11 12 13 14 14 13 13 14 14 14 15 16 17 18 18
13 12 13 14 13 12 11 11 11 12 14 16 15 12 10 9 7 5 4 3 2 3 3 3 3 4 6 6 5 6 7 8 10 11 10 9 10 10 11 12 11 12 17 20 19 18 15 12 12 12 10 9 11 13 14 13 12 12 13 11 11 12 13 13 13 12 11 11 12 12 12 12 14 14
12 12 11 11 11 9 8 7 8 10 14 16 15 13 12 10 7 5 4 3 4 5 4 4 4 5 6 5 5 6 9 10 10 11 11 10 10 11 11 13 15 17 18 16 15 18 16 11 11 14 12 11 12 13 15 15 13 12 13 11 10 11 12 11 11 11 10 10 10 10 11 11 11 12
11 10 9 7 6 6 6 5 6 9 14 17 17 14 13 10 7 5 4 5 5 5 5 4 4 5 6 5 6 9 11 10 9 10 11 12 12 13 15 17 20 19 16 11 11 16 16 12 13 14 13 13 13 14 16 18 15 11 11 10 9 10 11 10 10 10 9 9 9 9 10 11 11 12
7 6 6 5 4 4 4 4 5 10 16 18 17 14 11 8 5 4 5 5 4 4 5 5 5 5 7 7 7 10 10 9 10 11 13 14 15 16 17 17 17 15 11 8 9 15 16 14 14 15 14 15 16 15 16 18 15 10 10 10 10 9 10 10 11 10 10 10 9 8 9 10 11 12
3 2 3 3 3 3 3 3 5 11 16 16 14 11 8 6 5 4 4 4 4 5 5 5 5 6 7 8 9 10 10 10 10 11 12 13 13 13 14 14 13 12 10 8 10 15 16 13 14 15 15 17 18 16 15 16 15 12 11 11 11 10 11 12 13 12 11 11 10 8 7 8 8 10
5 5 4 4 3 3 4 6 9 11 12 11 9 8 6 5 5 4 4 4 5 6 5 5 6 7 8 9 10 10 11 11 11 11 11 11 11 12 14 14 13 12 12 11 12 15 15 12 14 17 17 17 18 17 14 13 12 11 11 11 14 15 16 17 17 16 14 12 10 9 7 7 7 8
6 7 6 6 5 6 8 9 10 9 8 7 6 6 5 5 4 4 4 4 5 5 5 6 7 8 9 10 11 11 13 14 13 12 11 12 12 13 13 14 14 14 13 10 10 13 14 13 15 17 18 17 16 14 12 10 10 10 12 15 17 19 20 20 20 19 17 13 10 10 9 10 10 9
9 9 9 8 7 8 9 9 9 8 6 5 5 4 4 5 4 4 4 3 2 3 4 6 8 9 10 12 13 14 15 16 15 13 12 12 12 13 13 14 14 13 10 8 11 15 17 16 16 16 16 15 12 10 10 11 12 14 16 17 17 18 19 19 17 15 15 14 12 11 11 12 12 11
13 12 11 10 9 8 9 8 7 6 5 3 3 3 3 4 4 4 4 3 3 4 5 7 9 10 11 12 13 13 13 14 13 12 12 12 12 13 15 15 15 14 13 13 15 18 19 18 18 18 17 15 14 14 15 16 18 18 18 18 17 17 17 17 15 15 15 15 15 14 13 12 12 12
14 13 12 11 9 7 7 7 6 5 4 3 3 4 4 4 4 3 2 4 5 6 7 9 10 10 10 11 11 11 11 11 11 11 12 12 13 14 16 17 18 19 18 17 16 17 19 20 19 20 19 19 20 21 21 20 20 19 18 17 17 17 16 16 16 16 16 16 16 16 15 13 12 13
13 13 13 11 10 8 6 6 5 4 4 3 3 3 3 2 2 1 2 4 5 5 6 8 9 9 9 10 10 10 10 10 10 11 12 13 14 15 16 17 19 20 20 19 17 18 21 21 20 19 20 20 21 22 21 21 20 18 17 17 17 17 17 17 18 17 16 15 15 16 17 16 15 15
14 14 13 11 10 8 7 6 5 4 3 2 2 1 0 2 3 4 4 5 6 6 7 8 9 9 9 10 10 10 10 11 11 12 12 13 14 15 16 16 18 20 21 21 19 20 22 23 21 20 21 21 21 21 20 20 19 18 18 18 17 17 18 18 19 19 18 17 16 16 17 18 17 16
14 14 13 12 10 8 7 6 4 3 2 2 1 2 3 5 6 6 5 6 7 7 8 8 9 9 9 9 10 11 11 12 12 12 12 12 12 13 14 15 16 18 19 19 19 19 20 22 21 20 20 21 21 20 20 20 20 20 20 20 19 18 18 18 18 18 17 17 17 16 16 17 16 15
14 13 12 11 9 7 6 5 4 3 2 1 2 4 5 6 7 6 6 6 7 7 7 8 9 9 10 11 12 13 12 12 12 12 12 12 12 13 14 15 16 17 17 17 17 16 17 19 19 19 19 19 20 21 21 22 22 21 20 20 20 19 19 18 18 18 18 17 16 15 15 15 15 15
13 12 11 10 9 7 5 4 3 2 1 2 4 5 6 6 5 5 5 5 6 6 7 8 9 11 13 13 13 12 12 12 13 13 13 14 14 13 14 15 16 16 16 16 16 16 16 17 17 18 19 19 20 21 21 22 22 22 20 20 21 20 18 17 17 16 16 16 16 15 15 14 14 15
13 12 11 9 8 6 5 4 2 1 1 2 3 4 4 4 3 3 4 5 6 6 7 9 11 13 13 13 13 12 13 13 14 13 13 14 14 14 15 16 17 17 16 15 15 14 15 16 16 17 18 19 20 20 20 21 22 22 21 20 20 19 18 17 18 17 17 17 17 17 17 16 16 17
14 13 11 10 8 7 6 4 3 2 1 1 2 2 2 2 3 4 6 6 6 6 7 9 12 13 13 13 13 13 13 14 14 14 14 14 14 14 14 15 17 17 16 16 15 14 14 14 15 15 16 18 19 20 20 20 21 21 21 20 19 19 19 19 19 19 18 18 19 19 20 19 19 19
15 14 12 11 9 7 6 5 3 2 2 1 1 1 2 2 2 4 5 5 6 7 8 9 11 12 12 13 13 13 13 14 15 14 14 14 14 14 14 15 16 17 17 17 17 15 14 13 13 14 16 17 18 19 20 20 21 21 21 20 19 19 18 18 18 18 19 19 19 19 19 19 19 20
15 14 11 9 8 7 5 4 3 2 2 2 1 1 2 2 3 5 5 6 7 9 9 9 10 12 12 13 13 14 14 15 15 14 14 14 14 14 15 16 17 17 17 18 18 17 15 14 13 14 15 16 18 18 19 20 21 21 19 19 19 18 17 16 16 16 17 17 18 18 18 19 19 18
14 12 10 8 7 6 5 4 3 3 2 2 1 1 2 3 5 6 6 7 9 10 9 9 10 12 13 13 13 14 14 15 15 15 14 14 14 14 15 16 17 17 17 17 18 17 15 15 14 14 14 15 16 16 16 19 21 20 18 17 16 16 16 15 14 14 13 14 14 15 16 18 18 14
13 10 9 8 7 6 4 4 3 3 2 1 1 2 3 5 6 7 8 10 10 10 9 9 10 12 13 13 13 14 14 14 15 15 15 15 14 15 15 15 16 17 17 17 17 16 15 15 14 13 14 13 11 11 12 13 15 17 17 16 15 14 14 14 13 12 12 13 13 13 14 16 16 14
11 9 8 7 7 5 4 4 3 2 1 0 2 3 4 6 7 8 10 11 10 9 9 10 11 12 13 13 13 13 14 14 15 16 16 15 15 14 15 15 16 17 17 17 17 16 16 15 14 13 12 10 8 9 11 11 12 13 15 15 15 14 14 14 14 13 12 12 12 13 14 14 14 14
10 10 8 7 6 5 5 4 3 2 1 1 2 4 5 7 8 9 10 10 9 9 9 10 12 13 13 12 13 13 14 15 16 16 16 15 15 14 15 16 16 17 17 17 17 16 15 15 14 14 12 9 7 8 10 11 11 10 10 12 14 14 14 14 15 15 13 11 11 13 14 14 14 15
10 10 8 7 7 5 5 4 3 2 1 2 3 4 6 8 10 10 10 9 9 10 9 11 13 13 12 12 13 13 14 15 16 16 16 15 15 15 15 16 17 17 18 17 17 16 15 14 14 13 12 11 11 11 13 14 14 13 13 14 15 16 16 14 14 15 13 11 11 13 12 11 11 10
11 9 8 7 6 5 5 4 3 1 1 2 4 5 8 9 10 10 9 9 10 11 11 11 12 12 12 13 13 13 14 15 15 15 15 15 15 15 16 17 17 17 18 17 17 15 15 14 13 13 14 15 15 15 15 15 15 16 16 14 12 12 13 12 13 12 11 9 10 9 7 5 4 4
11 9 8 7 6 5 5 4 2 1 1 3 4 7 10 11 10 10 10 10 12 13 12 12 12 12 13 14 13 13 14 15 15 15 14 15 15 16 17 17 17 16 16 17 17 17 16 16 15 15 16 15 13 11 10 10 10 12 11 9 8 10 10 11 12 11 9 9 8 5 3 2 2 2
11 9 8 7 6 5 5 3 2 0 3 4 6 9 11 11 10 10 10 11 13 14 12 11 12 13 14 14 13 13 13 14 15 15 15 15 16 16 16 16 16 16 16 17 18 18 17 17 15 14 12 10 7 7 8 8 9 9 9 7 8 8 9 10 11 10 9 8 6 4 3 2 2 3
11 9 8 7 6 6 5 3 1 2 3 5 7 10 11 10 9 9 10 10 12 13 12 11 13 13 14 14 13 13 13 13 14 14 15 15 16 16 16 16 17 17 17 18 18 17 16 15 13 10 8 8 7 7 9 9 9 9 8 7 6 5 5 7 6 3 7 9 8 6 4 3 2 3
11 9 8 7 7 6 4 2 0 3 5 7 9 10 10 9 9 10 10 11 13 14 13 12 12 13 13 13 13 13 13 13 14 14 14 15 15 16 16 17 17 17 17 17 17 16 14 12 10 8 8 8 7 7 8 9 8 7 6 5 4 2 2 4 5 3 4 5 5 4 4 4 4 4
11 9 8 8 7 6 4 1 1 4 6 7 9 9 10 10 11 11 11 13 15 15 13 11 11 13 14 14 14 14 14 14 14 14 14 14 15 16 16 16 16 16 16 15 15 14 13 12 9 7 7 7 7 6 7 7 6 6 5 3 2 1 2 3 5 6 7 5 3 1 1 2 2 2
Wind_Direction
129 130 127 123 120 118 113 108 105 104 105 112 122 135 151 154 150 149 135 111 89 70 62 61 51 44 45 47 52 56 53 49 50 48 45 44 41 35 31 32 34 37 40 41 39 34 32 31 30 26 17 359 340 325 312 304 300 295 288 282 280 277 274 272 270 270 271 270 269 267 261 253 249 248
128 127 125 123 121 119 115 109 105 103 102 102 102 102 108 119 126 135 128 107 94 81 66 56 50 45 46 47 51 54 51 46 50 49 42 38 33 21 13 10 10 10 11 11 11 10 8 7 7 6 4 358 347 336 324 312 308 305 300 295 291 286 281 274 270 267 268 270 271 270 270 267 261 256
125 125 124 123 122 120 117 114 111 108 108 105 101 97 95 96 100 108 117 112 101 84 68 58 52 50 52 51 52 54 51 47 49 49 45 40 34 25 13 5 359 354 350 349 346 342 340 336 335 333 332 330 327 324 319 313 309 305 303 301 297 294 290 284 276 269 265 267 271 272 271 271 271 267
124 125 124 123 124 122 120 119 118 116 116 113 108 103 98 97 97 93 94 102 109 105 79 68 60 57 57 52 52 56 53 51 53 53 48 43 40 36 25 11 6 359 350 346 342 337 332 325 319 315 312 310 309 308 307 307 305 303 302 301 299 297 295 291 285 277 270 265 265 268 270 269 270 272
132 133 132 130 128 126 125 124 123 123 123 120 115 112 108 103 97 91 91 99 115 123 105 87 75 65 63 53 51 55 52 49 49 47 45 43 41 39 33 19 8 4 360 356 353 348 342 335 325 317 311 306 303 300 299 298 297 297 296 296 296 297 296 294 290 285 280 272 264 262 263 265 267 270
144 143 143 140 137 137 135 133 133 133 132 129 124 118 115 111 102 94 96 99 110 125 125 116 96 68 64 56 46 45 45 44 41 35 31 33 31 28 30 25 10 7 8 4 2 360 355 347 338 327 318 311 305 301 298 295 293 292 291 290 289 290 291 293 292 289 286 281 274 265 259 259 262 265
166 161 157 154 150 150 148 145 145 144 142 138 133 126 118 115 108 98 100 103 108 123 128 127 119 70 56 50 37 31 29 29 30 26 20 21 20 16 19 20 10 5 5 3 1 357 352 347 339 332 323 315 309 303 299 295 293 290 288 286 285 284 283 284 286 287 286 284 280 273 265 259 256 257
196 194 193 192 180 171 167 163 160 157 154 147 139 133 124 119 111 100 99 103 109 122 131 132 125 84 53 41 27 21 15 11 13 14 10 11 10 6 9 10 5 360 359 357 356 354 351 346 340 333 325 315 308 302 298 294 291 289 287 285 283 281 280 278 278 280 281 281 280 275 269 262 255 251
228 225 225 227 217 201 192 183 177 176 171 162 156 148 138 132 120 104 99 103 106 114 127 138 130 87 57 33 20 17 12 3 359 1 358 358 360 358 360 1 359 356 355 352 351 353 354 351 347 343 336 324 314 305 298 293 290 288 286 284 282 281 279 278 276 276 276 276 276 275 271 265 258 250
250 252 248 247 243 227 217 214 208 204 199 189 183 173 160 151 134 113 101 97 97 99 107 121 124 96 44 27 19 9 8 6 359 357 354 349 350 350 352 354 354 354 352 348 347 349 352 352 350 350 347 339 332 321 306 295 290 290 289 286 284 282 280 279 277 275 274 273 272 272 271 268 263 255
257 254 248 245 247 242 238 244 244 233 221 210 202 195 181 165 147 125 109 101 96 92 94 87 80 78 16 12 6 359 4 7 360 358 354 345 342 343 345 347 348 348 347 345 343 343 347 350 348 349 351 348 343 336 321 305 297 295 296 294 292 290 285 282 280 276 273 271 270 269 268 268 267 263
262 255 250 244 243 245 243 241 241 237 230 219 209 203 194 179 161 139 122 111 96 80 79 66 33 8 352 3 357 352 0 1 352 353 350 340 337 338 340 341 338 339 343 342 338 336 340 345 345 344 347 346 342 340 334 324 314 309 309 308 304 302 297 291 287 282 277 272 268 267 266 266 267 266
268 262 257 250 247 253 252 242 237 239 241 234 225 217 207 197 188 165 147 126 94 38 7 12 1 344 338 351 350 344 349 347 341 342 341 334 332 333 334 334 330 333 339 339 335 330 332 337 340 339 335 335 339 342 341 328 318 314 319 322 319 314 308 303 297 291 285 278 272 268 265 263 263 264
270 268 264 259 257 261 261 248 237 237 241 241 240 237 224 211 200 180 166 152 128 325 339 355 346 333 327 334 338 331 329 332 331 332 333 330 329 331 331 330 328 330 335 336 333 327 324 329 334 330 322 327 335 337 328 311 303 303 310 320 326 324 319 313 306 298 292 286 280 273 267 264 262 261
270 269 267 266 265 265 265 255 240 234 235 234 232 229 217 206 201 190 177 166 178 275 305 310 305 311 311 312 316 318 320 323 325 326 325 323 327 330 326 323 321 323 330 331 327 321 321 323 324 321 316 319 323 321 315 306 296 294 296 304 319 326 326 324 317 307 299 293 288 282 273 267 263 262
267 267 267 269 270 270 271 265 248 234 226 221 217 211 202 199 200 197 191 192 236 271 267 261 272 288 299 304 302 307 316 318 318 319 318 317 321 320 313 311 309 311 322 327 319 312 314 315 313 314 311 307 310 314 317 315 301 290 288 292 304 316 321 326 328 324 318 311 305 299 290 279 271 268
262 264 267 273 275 273 273 266 251 235 218 207 202 200 198 198 198 202 216 252 276 271 261 266 276 280 290 299 297 298 308 314 315 315 316 316 315 310 304 302 302 304 311 317 310 305 308 309 305 307 306 302 305 307 310 316 310 289 282 284 292 304 311 318 327 331 329 326 318 310 304 295 282 274
255 257 258 263 267 266 263 253 240 225 206 193 188 190 193 193 195 211 250 276 273 262 261 267 269 273 279 286 293 302 310 315 312 309 311 312 309 304 300 298 299 301 301 302 302 299 302 307 302 300 301 301 303 300 301 312 313 288 272 275 280 295 306 310 316 320 318 318 316 306 298 295 290 281
246 248 243 235 234 238 239 236 221 203 191 185 183 184 186 189 204 236 260 261 255 259 265 262 259 269 281 289 296 305 313 312 307 305 305 305 301 298 298 297 298 299 291 283 291 294 298 304 299 296 300 301 300 297 297 306 309 284 263 265 271 284 298 302 306 309 307 309 309 300 290 285 285 284
187 184 185 187 196 210 208 182 178 184 184 181 181 181 185 200 223 241 246 245 261 273 269 268 275 282 292 299 301 305 309 305 305 306 302 299 296 294 296 296 296 297 290 280 288 292 295 301 298 296 301 301 298 296 294 298 298 278 258 259 269 279 288 292 296 299 301 303 300 292 284 277 275 276
128 126 124 126 133 147 150 146 155 170 176 178 181 187 196 207 212 218 234 252 267 275 279 289 299 300 303 305 305 307 307 304 306 305 297 298 302 298 297 297 296 297 295 290 292 291 291 298 301 299 301 299 295 294 293 293 288 276 271 277 280 282 283 286 289 289 290 295 294 283 278 280 282 280
125 121 112 106 115 132 139 143 150 159 169 179 185 190 191 186 186 210 242 263 274 288 304 308 308 309 308 306 306 305 303 302 303 298 291 296 300 295 292 295 296 297 293 294 300 296 293 300 305 303 303 299 292 289 289 290 287 286 294 298 293 290 289 289 288 283 279 281 286 285 283 284 286 286
130 124 117 114 122 135 139 143 149 152 158 169 173 174 171 163 177 220 241 248 266 293 307 306 307 308 305 304 304 302 301 301 298 289 282 285 288 287 287 292 295 294 291 298 305 298 296 301 303 303 305 303 296 291 290 292 293 293 297 297 295 296 298 298 298 292 281 273 274 280 286 287 287 286
133 129 125 125 130 136 139 143 147 147 148 153 159 169 169 169 191 226 240 251 274 292 300 302 305 305 303 303 302 300 299 300 295 286 279 276 276 279 283 286 288 286 285 294 298 292 291 296 296 296 295 292 290 293 293 293 294 294 294 295 293 295 297 298 299 299 291 281 275 276 280 283 284 280
137 137 136 134 136 140 143 145 146 147 150 158 181 195 197 201 212 220 245 286 301 307 307 306 306 303 301 301 300 298 298 296 292 286 283 278 276 276 279 282 284 283 283 288 289 284 285 288 289 290 288 283 284 290 293 293 293 292 293 293 292 292 294 292 289 290 290 286 280 277 276 278 282 280
145 146 145 144 145 148 150 152 155 161 169 177 192 198 199 223 262 286 298 306 313 313 308 307 305 302 302 302 302 301 301 298 295 294 291 286 282 278 275 276 278 279 281 284 283 279 279 280 282 284 284 283 285 289 291 291 292 292 292 290 289 289 290 288 286 284 284 282 277 275 273 273 277 281
154 154 153 150 151 154 156 158 161 166 171 164 151 137 354 325 330 336 330 325 324 316 310 308 306 305 307 307 306 307 306 303 300 297 292 287 283 280 276 274 273 275 278 281 280 276 274 276 278 279 280 283 286 287 288 288 290 291 290 289 289 288 286 284 283 282 280 278 276 273 273 273 274 275
160 159 157 153 153 155 153 150 150 146 136 111 70 13 340 338 343 345 340 331 325 318 314 312 310 310 311 312 310 308 306 302 298 295 291 287 284 283 281 279 277 276 278 280 280 276 274 275 276 276 276 279 281 283 284 285 287 288 289 289 289 287 285 283 282 280 279 278 277 275 273 270 267 266
162 158 154 149 148 147 141 135 132 123 101 43 356 337 336 344 346 341 336 331 325 321 318 316 315 314 313 312 308 303 300 299 298 296 294 293 292 290 288 286 283 281 281 281 281 279 276 275 275 276 275 274 275 277 281 284 285 286 287 288 288 287 285 282 279 278 277 276 275 274 273 272 271 270
155 151 149 146 145 145 143 142 137 116 49 352 337 333 336 346 349 342 339 334 327 321 317 314 313 312 310 306 303 300 299 297 298 298 297 297 296 295 294 293 290 287 285 284 283 281 278 275 274 274 274 273 272 274 277 281 284 284 283 284 285 286 285 282 279 278 276 274 273 274 276 280 284 283
153 150 149 149 150 151 152 148 134 101 28 355 348 347 350 356 354 343 336 330 322 314 312 312 311 308 306 303 301 300 299 297 297 298 297 295 294 295 295 294 293 293 292 289 287 283 278 276 275 274 274 274 274 274 276 279 281 282 281 281 281 282 281 281 282 280 277 277 279 278 278 282 286 286
155 151 148 148 148 147 145 137 123 112 97 43 17 24 30 9 350 342 338 333 323 310 308 313 313 308 304 304 303 301 299 299 300 300 297 293 293 295 295 293 293 296 298 295 293 287 280 277 275 272 271 272 274 276 278 278 277 278 280 280 278 277 278 278 279 278 277 278 278 278 278 280 283 284
154 151 150 149 147 146 147 142 136 129 118 91 84 73 43 12 348 339 334 328 321 314 310 313 315 312 307 306 307 305 302 302 302 300 297 294 293 294 294 291 292 296 298 297 295 292 287 282 276 272 270 269 270 272 274 274 274 273 274 277 279 278 277 278 277 277 278 278 277 278 279 279 278 278
157 154 151 150 152 155 157 154 151 145 133 127 121 59 7 354 342 337 332 324 320 317 309 305 311 315 310 308 309 308 306 304 304 302 298 294 293 294 293 293 293 294 295 294 294 295 294 291 285 280 275 272 270 267 263 263 268 272 274 276 277 278 278 278 278 279 280 278 278 281 281 277 275 274
158 155 153 154 158 161 159 157 153 142 134 131 102 2 345 344 342 338 333 326 321 316 307 301 309 316 314 310 309 308 306 305 305 304 301 297 294 294 294 293 293 294 294 294 294 296 297 295 292 288 285 282 280 273 261 254 257 266 275 277 277 277 278 281 284 287 287 285 283 280 277 275 277 277
155 156 158 158 161 163 160 156 151 142 137 128 24 356 344 342 340 334 331 331 329 322 312 309 313 318 317 314 310 309 308 306 304 303 302 299 297 296 295 292 292 293 295 295 295 296 295 291 288 286 286 287 285 282 277 266 257 260 268 274 278 281 284 291 297 295 292 290 287 279 273 273 279 282
154 158 162 162 162 164 160 154 154 154 148 85 6 352 342 340 336 332 332 334 330 321 314 314 319 321 321 319 315 313 311 307 305 303 302 300 299 297 296 295 295 296 296 295 294 293 290 286 282 279 280 284 283 282 287 288 280 270 267 270 277 284 290 296 299 295 292 293 291 285 278 274 275 279
159 162 163 164 162 161 158 157 160 162 139 22 352 346 341 336 332 330 329 327 322 317 315 319 325 326 325 323 320 316 310 307 305 304 303 303 301 299 298 297 297 296 296 294 292 289 285 281 277 273 270 270 275 283 291 296 294 284 271 269 275 284 289 290 288 288 290 291 290 291 288 279 273 276
166 166 164 163 160 157 159 161 161 154 98 357 345 343 339 334 331 331 327 320 319 322 322 324 328 330 327 324 320 313 304 301 300 301 302 303 302 301 299 297 296 296 296 294 293 292 289 283 277 270 265 263 268 280 291 293 290 286 282 278 276 278 280 280 280 283 285 284 288 293 292 283 275 271
170 166 162 160 157 156 161 162 158 148 19 344 337 338 336 332 329 326 320 318 328 335 332 328 328 328 324 320 317 308 300 298 297 298 300 302 300 298 298 296 295 295 296 295 296 297 295 289 283 278 278 280 280 282 285 285 283 284 288 289 283 277 275 274 275 276 276 278 284 286 281 276 271 248
168 162 159 158 155 156 160 156 148 149 344 338 329 329 332 330 328 328 332 341 350 350 343 333 328 324 320 317 313 306 301 300 300 300 302 302 300 298 298 297 296 296 296 297 297 295 294 293 292 290 289 289 286 282 278 275 278 285 292 295 294 290 287 282 273 265 265 275 278 268 251 254 245 207
165 160 159 158 155 156 158 151 143 329 338 333 325 328 331 328 326 333 341 349 355 353 345 335 330 325 320 316 312 307 303 302 302 304 304 304 302 302 302 301 299 298 296 294 293 293 295 298 299 296 291 284 274 268 269 274 282 291 298 300 298 297 303 302 286 261 248 256 257 238 222 232 228 221
161 159 160 161 157 156 158 153 146 335 335 328 325 330 332 324 323 334 341 345 350 348 341 334 331 327 321 317 315 312 308 306 307 307 307 306 305 303 302 302 299 297 294 292 292 294 296 298 299 293 282 272 265 264 271 279 287 293 299 306 309 308 323 333 327 258 223 231 239 242 236 231 253 263
161 160 161 163 162 162 164 166 308 333 333 328 326 329 330 326 331 342 348 351 351 346 339 334 329 325 321 321 319 317 314 312 312 310 308 307 306 303 301 301 300 298 296 295 296 297 297 297 296 286 273 272 272 269 272 280 289 295 302 312 321 328 355 19 39 82 154 191 214 234 232 234 277 298
162 161 163 167 165 164 169 176 342 336 331 330 328 329 334 339 344 348 352 353 351 345 337 329 324 324 326 326 322 318 317 316 315 313 311 310 309 306 304 304 303 303 301 300 301 302 303 303 298 282 269 272 276 273 271 274 281 292 303 317 341 24 55 66 73 81 88 90 80 41 246 255 298 357